Location: Kitchener-Waterloo
(43.4500°N, 80.5000°W)
Time: 18:33:24
(UTC-04:00)

ISS - All Passes

Search period start: 23 May 2017 00:00
Search period end: 02 June 2017 00:00
Orbit: 402 x 409 km, 51.6° (Epoch: 24 May)

Date Brightness Start Highest point End Pass type
(mag) Time Alt. Az. Time Alt. Az. Time Alt. Az.
23 May - 01:25:04 10° WNW 01:27:39 21° N 01:30:15 10° NE visible
23 May - 03:02:15 10° NW 03:04:57 22° NNE 03:07:37 10° ENE visible
23 May - 04:38:33 10° NW 04:41:50 74° NNE 04:45:06 10° ESE visible
23 May - 06:16:01 10° W 06:17:58 15° SW 06:19:53 10° S daylight
23 May - 21:21:23 10° SSE 21:22:34 12° SE 21:23:45 10° ESE visible
23 May - 22:55:17 10° SW 22:58:34 87° SSE 23:01:53 10° ENE visible
24 May - 00:32:37 10° WNW 00:35:24 24° NNW 00:38:11 10° NE visible
24 May - 02:10:09 10° NW 02:12:40 20° N 02:15:11 10° NE visible
24 May - 03:46:34 10° NW 03:49:44 45° NNE 03:52:54 10° E visible
24 May - 05:23:18 10° WNW 05:26:07 26° SW 05:28:54 10° SSE daylight
24 May - 22:03:23 10° SW 22:06:34 47° SE 22:09:45 10° ENE visible
24 May - 23:40:10 10° W 23:43:10 32° NNW 23:46:11 10° NE visible
25 May - 01:17:54 10° NW 01:20:22 19° N 01:22:49 10° NE visible
25 May - 02:54:34 10° NW 02:57:34 31° NNE 03:00:32 10° E visible
25 May - 04:30:59 10° WNW 04:34:11 49° SW 04:37:20 10° SE visible
25 May - 21:11:50 10° SSW 21:14:37 26° SE 21:17:26 10° ENE daylight
25 May - 22:47:47 10° WSW 22:50:59 46° NNW 22:54:11 10° NE visible
26 May - 00:25:31 10° WNW 00:28:03 20° N 00:30:34 10° NE visible
26 May - 02:02:33 10° NW 02:05:19 24° NNE 02:08:04 10° ENE visible
26 May - 03:38:51 10° WNW 03:42:09 90° SSE 03:45:25 10° ESE visible
26 May - 05:16:54 10° WSW 05:18:10 12° SW 05:19:25 10° SSW daylight
26 May - 20:20:50 10° SSE 20:22:44 15° SE 20:24:38 10° E daylight
26 May - 21:55:33 10° WSW 21:58:51 76° NNW 22:02:09 10° NE visible
26 May - 23:33:02 10° WNW 23:35:44 23° NNW 23:38:27 10° NE visible
27 May - 01:10:26 10° NW 01:13:01 21° N 01:15:35 10° ENE visible
27 May - 02:46:48 10° NW 02:50:02 53° NNE 02:53:15 10° ESE visible
27 May - 04:23:44 10° W 04:26:18 21° SW 04:28:52 10° S visible
27 May - 21:03:31 10° SW 21:06:46 60° SE 21:10:02 10° ENE daylight
27 May - 22:40:32 10° W 22:43:27 28° NNW 22:46:23 10° NE visible
28 May - 00:18:12 10° NW 00:20:41 19° N 00:23:09 10° NE visible
28 May - 01:54:46 10° NW 01:57:50 35° NNE 02:00:53 10° E visible
28 May - 03:31:15 10° WNW 03:34:21 39° SW 03:37:25 10° SSE visible
28 May - 20:11:46 10° SSW 20:14:45 32° SE 20:17:45 10° ENE daylight
28 May - 21:48:04 10° W 21:51:12 39° NNW 21:54:20 10° NE visible
28 May - 23:25:49 10° NW 23:28:20 19° N 23:30:49 10° NE visible
29 May - 01:02:43 10° NW 01:05:35 26° NNE 01:08:25 10° ENE visible
29 May - 02:39:02 10° WNW 02:42:19 73° SW 02:45:35 10° SE visible
29 May - 19:20:28 10° S 19:22:49 18° SE 19:25:09 10° E daylight
29 May - 20:55:44 10° WSW 20:59:00 62° NNW 21:02:18 10° NE daylight
29 May - 22:33:20 10° WNW 22:35:58 21° N 22:38:36 10° NE visible
30 May - 00:10:36 10° NW 00:13:15 22° N 00:15:53 10° ENE visible
30 May - 01:46:54 10° NW 01:50:12 64° NNE 01:53:27 10° ESE visible
30 May - 03:24:07 10° W 03:26:22 17° SW 03:28:36 10° S night (unlit)
30 May - 20:03:34 10° SW 20:06:52 76° SSE 20:10:10 10° ENE daylight
30 May - 21:40:47 10° WNW 21:43:37 26° NNW 21:46:28 10° NE visible
30 May - 23:18:23 10° NW 23:20:53 20° N 23:23:22 10° NE visible
31 May - 00:54:50 10° NW 00:57:59 40° NNE 01:01:07 10° E visible
31 May - 02:31:28 10° WNW 02:34:25 31° SW 02:37:20 10° SSE visible
31 May - 19:11:40 10° SSW 19:14:47 40° SE 19:17:55 10° ENE daylight
31 May - 20:48:15 10° W 20:51:19 34° NNW 20:54:23 10° NE daylight
31 May - 22:26:01 10° NW 22:28:29 19° N 22:30:58 10° NE visible
01 Jun - 00:02:46 10° NW 00:05:42 29° NNE 00:08:38 10° E visible
01 Jun - 01:39:07 10° WNW 01:42:22 58° SW 01:45:35 10° SE visible
01 Jun - 18:20:08 10° S 18:22:46 22° SE 18:25:25 10° E daylight
01 Jun - 19:55:50 10° WSW 19:59:04 52° NNW 20:02:18 10° NE daylight
01 Jun - 21:33:30 10° WNW 21:36:05 21° N 21:38:39 10° NE visible
01 Jun - 23:10:38 10° NW 23:13:21 23° NNE 23:16:04 10° ENE visible
